全球星 M091星 (GLOBALSTAR M091)

导读 | 星芒AI

GLOBALSTAR M091 是 Globalstar 卫星通信公司运营的一颗低轨移动通信卫星,属于其第二代卫星星座(Globalstar 2)的一部分。该卫星主要用于提供全球范围内的语音和数据通信服务,特别是在偏远地区和海上等传统蜂窝网络无法覆盖的区域。M091 卫星运行在近地轨道,采用先进的通信技术,以提高信号质量和系统容量。它是 Globalstar 扩展其卫星通信网络、支持物联网和应急通信应用的重要组成部分。

基本信息
目录编号:
37741
目录名称:
GLOBALSTAR M091
国际标识:
2011-033C
轨道中心:
EARTH
卫星名称:
全球星 M091星
卫星全名:
全球星 M091星 (GLOBALSTAR M091)
卫星状态:
在轨 (已飞行5270 天)
发射日期:
2011-07-13 UTC
国别 :
(GLOB)
星等 :
--
轨道信息
数据来源 国际轨道数据 AOE轨道数据
星历时间 2025-12-15T13:59:53+0800
19小时前
查看轨道信息
2025-12-15T04:00:00+0800
1天前
查看轨道信息
半长轴 7791.734km 7791.717km
偏心率 0.0000647 0.0000902
轨道倾角 52.000° 52.000°
近地点辐角 132.428° 106.648°
升交点赤经 81.899° 83.166°
平近点角 252.659° 184.479°
近地点 1413.094km 1412.879km
远地点 1414.104km 1414.285km
周期 114.080分钟 114.080分钟
每日圈数 12.622681 12.622723
详细信息
固有亮度:
5
最大亮度:
7.2
平衡模式:
三轴稳定
覆盖范围:
全球
运营商:
全球星公司
运营商所在国:
美国
使用方式:
暂无
卫星简介
全球星星座由48颗卫星加8颗备份星组成。这些卫星分布在8个倾角为52度的圆形轨道平面上,每个轨道平面6颗卫星,另有1 颗备用星。轨道高度约为1414km,传输时延和处理时延小于300ms,整个系统的覆盖区为南北纬70度以内的地区。该卫星已退役。
2D轨道图
3D轨道图
轨道高度分析图
轨道倾角分析图
轨道综合分析图
查看轨道综合分析图